Tijuana, Mexico

2:25 PM PST on December 06, 2016 (GMT -0800)
Gen Abelardo L Rodriguez International

Weather History for MMTJ - November, 2012

Change the Weather History Date:

Friday, November 9, 2012

  Actual Average Record
Temperature  
Mean Temperature 57 °F -  
Max Temperature 64 °F 70 °F 93 °F (1996)
Min Temperature 50 °F 52 °F 46 °F (2013)
Degree Days  
Heating Degree Days 8    
Growing Degree Days 7 (Base 50)    
Moisture  
Dew Point 48 °F    
Average Humidity 74    
Maximum Humidity 94    
Minimum Humidity 52    
Precipitation  
Precipitation 0.00 in - - ()
Sea Level Pressure  
Sea Level Pressure 29.97 in    
Wind  
Wind Speed 6 mph ()    
Max Wind Speed 20 mph    
Max Gust Speed -    
Visibility 5.9 miles    
Events Rain    
Averages and records for this station are not official NWS values.
T = Trace of Precipitation, MM = Missing Value Source: Averaged Metar Reports

Daily Weather History Graph

Daily Weather History Graph

Search for Another Location

Airport or City:

Trip Planner

Search our weather history database for the weather conditions in past years. The results will help you decide how hot, cold, wet, or windy it might be!

Date:

Astronomy

Nov. 09, 2012 Rise Set
Actual Time 6:12 AM PST 4:50 PM PST
Civil Twilight 5:46 AM PST 5:16 PM PST
Nautical Twilight 5:17 AM PST 5:45 PM PST
Astronomical Twilight 4:48 AM PST 6:14 PM PST
Moon 1:31 AM PST (11/9) 1:53 PM PST (11/9)
Length of Visible Light 11h 29m
Length of Day
10h 37m
Waning Crescent, 22% of the Moon is Illuminated
Nov 9
Waning Crescent
Nov 13
New
Nov 20
First Quarter
Nov 28
Full
Dec 6
Last Quarter

Hourly Weather History & Observations

Time (PST) Temp. Dew Point Humidity Pressure Visibility Wind Dir Wind Speed Gust Speed Precip Events Conditions
12:08 AM 57.2 °F 55.4 °F 94% 29.96 in 2.5 mi WSW 8.1 mph - N/A   Overcast
12:40 AM 57.2 °F 53.6 °F 88% 30.01 in 5.0 mi West 6.9 mph - N/A   Overcast
1:40 AM 57.2 °F 51.8 °F 82% 29.96 in 5.0 mi West 8.1 mph - N/A   Overcast
2:40 AM 57.2 °F 50.0 °F 77% 29.96 in 5.0 mi NW 6.9 mph - N/A   Overcast
3:45 AM 55.4 °F 50.0 °F 82% 30.03 in 5.0 mi Calm Calm - N/A   Overcast
4:40 AM 55.4 °F 50.0 °F 82% 29.96 in 5.0 mi Calm Calm - N/A   Overcast
5:50 AM 55.4 °F 51.8 °F 88% 29.95 in 5.0 mi Calm Calm - N/A   Overcast
6:43 AM 55.4 °F 51.8 °F 88% 30.03 in 6.0 mi East 3.5 mph - N/A   Overcast
7:43 AM 57.2 °F 50.0 °F 77% 29.97 in 6.0 mi SSE 2.3 mph - N/A   Mostly Cloudy
8:43 AM 59.0 °F 50.0 °F 72% 29.97 in 6.0 mi East 2.3 mph - N/A   Overcast
9:44 AM 60.8 °F 44.6 °F 55% 29.96 in 7.0 mi NW 11.5 mph - N/A   Mostly Cloudy
9:54 AM 60.8 °F 51.8 °F 72% 29.98 in 6.0 mi NW 19.6 mph - N/A Rain Light Rain
10:44 AM 64.4 °F 46.4 °F 52% 29.97 in 6.0 mi WNW 10.4 mph - N/A   Overcast
11:51 AM 60.8 °F 48.2 °F 63% 29.96 in 7.0 mi WNW 19.6 mph - N/A   Overcast
12:45 PM 59.0 °F 44.6 °F 59% 29.93 in 7.0 mi NW 12.7 mph - N/A   Overcast
1:46 PM 59.0 °F 42.8 °F 55% 29.94 in 7.0 mi NW 10.4 mph - N/A   Mostly Cloudy
2:32 PM 59.0 °F 44.6 °F 59% 29.95 in 6.0 mi NW 15.0 mph - N/A Rain Light Rain
2:45 PM 55.4 °F 46.4 °F 72% 29.95 in 7.0 mi WNW 8.1 mph - N/A   Overcast
3:45 PM 59.0 °F 42.8 °F 55% 29.98 in 8.0 mi WNW 13.8 mph - N/A   Mostly Cloudy
4:50 PM 55.4 °F 42.8 °F 63% 29.95 in 6.0 mi WNW 11.5 mph - N/A   Mostly Cloudy
5:47 PM 53.6 °F 44.6 °F 72% 29.95 in 6.0 mi WNW 6.9 mph - N/A   Mostly Cloudy
6:14 PM 55.4 °F 42.8 °F 63% 29.96 in 5.0 mi WSW 10.4 mph - N/A Rain Light Rain
6:48 PM 53.6 °F 46.4 °F 77% 29.99 in 6.0 mi SW 8.1 mph - N/A   Mostly Cloudy
7:50 PM 51.8 °F 46.4 °F 82% 29.98 in 6.0 mi Calm Calm - N/A   Mostly Cloudy
8:19 PM 51.8 °F 46.4 °F 82% 29.98 in 5.0 mi Calm Calm - N/A Rain Light Rain
8:44 PM 50.0 °F 48.2 °F 94% 29.99 in 5.0 mi Calm Calm - N/A   Mostly Cloudy
10:44 PM 51.8 °F 48.2 °F 88% 30.00 in 7.0 mi SE 3.5 mph - N/A   Mostly Cloudy
11:50 PM 51.8 °F 44.6 °F 76% 30.00 in 7.0 mi Calm Calm - N/A   Mostly Cloudy